Flight Track Log - Related Links

Times and Time Zones

All times are in EDT time to prevent confusion due to time zone crossing. See the GJS3629 flight status page for this flight to view local times or setup timezone preferences in your user account.

Time Position Orientation Groundspeed Altitude Reporting Facility
EDT Latitude Longitude Course Direction KTS MPH feet Rate Location/Type
06:55AM 38.9667 -77.5167 North 182 209 2,600  Level Potomac TRACON
06:56AM 39.0167 -77.5500 333° Northwest 230 265 5,000 2,636 Climbing Potomac TRACON
06:58AM 39.1733 -77.6292 339° North 260 299 11,300 2,485 Climbing Washington Center
06:59AM 39.2636 -77.6022 13° North 294 338 13,200 2,300 Climbing Washington Center
07:00AM 39.4233 -77.5833 North  Level FlightAware Approximate
07:00AM 39.3558 -77.5589 20° North 315 362 15,900  Level Washington Center
07:01AM 39.4503 -77.5133 20° North 336 387 17,100 550 Climbing Washington Center
07:02AM 39.5075 -77.5981 311° West 266 306 17,000 450 Descending Washington Center
07:03AM 39.5053 -77.7272 269° West 268 308 18,000 1,800 Climbing Washington Center
07:04AM 39.5303 -77.8383 286° West 320 368 20,600 2,500 Climbing Washington Center
07:05AM 39.5636 -77.9522 291° West 339 390 23,000 1,900 Climbing Washington Center
07:06AM 39.6006 -78.0719 292° West 350 403 24,400 1,490 Climbing Washington Center
07:07AM 39.6533 -78.2453 292° West 362 417 26,600 1,490 Climbing Cleveland Center
07:08AM 39.6933 -78.3761 292° West 374 430 28,000 1,450 Climbing Cleveland Center
07:09AM 39.7314 -78.5072 291° West 386 444 29,500 1,400 Climbing Cleveland Center
07:10AM 39.7692 -78.6358 291° West 386 444 30,800 1,150 Climbing Cleveland Center
07:11AM 39.8025 -78.7619 289° West 386 444 31,800 850 Climbing Cleveland Center
07:12AM 39.8400 -78.8958 290° West 386 444 32,500 750 Climbing Cleveland Center
07:13AM 39.8881 -79.0464 293° West 391 450 33,300 800 Climbing Cleveland Center
07:14AM 39.9294 -79.1833 292° West 402 463 34,100 850 Climbing Cleveland Center
07:15AM 39.9664 -79.3208 289° West 407 468 35,000 850 Climbing Cleveland Center
07:16AM 40.0239 -79.4497 300° West 407 468 35,800 850 Climbing Cleveland Center
07:17AM 40.0878 -79.5764 303° West 407 468 36,700 900 Climbing Cleveland Center
07:18AM 40.1514 -79.6975 305° West 412 474 37,600 650 Climbing Cleveland Center
07:19AM 40.2125 -79.8164 304° West 412 474 38,000 200 Climbing Cleveland Center
07:20AM 40.2739 -79.9408 303° West 407 468 38,000  Level Cleveland Center
07:21AM 40.3286 -80.0575 302° West 418 481 38,000  Level Cleveland Center
07:22AM 40.3917 -80.1825 304° West 418 481 38,000  Level Cleveland Center
07:23AM 40.4525 -80.3019 304° West 407 468 38,000  Level Cleveland Center
07:24AM 40.5153 -80.4192 305° West 402 463 38,000  Level Cleveland Center
07:25AM 40.5736 -80.5339 304° West 392 451 38,000  Level Cleveland Center
07:26AM 40.6342 -80.6653 301° West 387 445 38,000  Level Cleveland Center
07:27AM 40.6819 -80.7719 301° West 387 445 38,000  Level Cleveland Center
07:28AM 40.7025 -80.9144 281° West 382 440 38,000  Level Cleveland Center
07:29AM 40.7167 -81.0569 278° West 388 447 38,000  Level Cleveland Center
07:30AM 40.7367 -81.1969 281° West 388 447 38,000  Level Cleveland Center
07:31AM 40.7547 -81.3369 280° West 388 447 38,000  Level Cleveland Center
07:32AM 40.7725 -81.4769 280° West 393 452 38,000  Level Cleveland Center
07:33AM 40.7939 -81.6308 280° West 393 452 38,000  Level Cleveland Center
07:34AM 40.8114 -81.7711 279° West 393 452 38,000  Level Cleveland Center
07:35AM 40.8286 -81.9139 279° West 393 452 38,000  Level Cleveland Center
07:36AM 40.8456 -82.0542 279° West 387 445 38,000  Level Cleveland Center
07:37AM 40.8625 -82.1947 279° West 392 451 38,000  Level Cleveland Center
07:38AM 40.8811 -82.3381 280° West 392 451 38,000  Level Cleveland Center
07:39AM 40.8978 -82.4814 279° West 392 451 38,000  Level Cleveland Center
07:40AM 40.9122 -82.6108 278° West 392 451 38,000  Level Cleveland Center
07:41AM 40.9303 -82.7542 280° West 397 457 38,000  Level Cleveland Center
07:42AM 40.9483 -82.8978 279° West 397 457 38,000  Level Cleveland Center
07:43AM 40.9642 -83.0442 278° West 397 457 38,000  Level Cleveland Center
07:44AM 40.9856 -83.1992 280° West 397 457 38,000  Level Cleveland Center
07:45AM 41.0031 -83.3428 279° West 397 457 38,000  Level Cleveland Center
07:46AM 41.0164 -83.4756 278° West 402 463 38,000  Level Cleveland Center
07:49AM 41.0536 -83.8106 278° West 406 467 38,000  Level Chicago Center
07:50AM 41.0694 -83.9589 278° West 407 468 38,000 -488 Level Chicago Center
07:51AM 41.0844 -84.1072 278° West 408 470 37,000 -976 Descending Chicago Center
07:52AM 41.1006 -84.2544 278° West 404 465 36,000 -976 Descending Chicago Center
07:53AM 41.1158 -84.4019 278° West 405 466 35,000 -976 Descending Chicago Center
07:54AM 41.1294 -84.5506 277° West 406 467 34,000 -488 Descending Chicago Center
07:55AM 41.1447 -84.7042 278° West 415 478 34,000  Level Chicago Center
07:56AM 41.1669 -84.8919 279° West 429 494 34,000 -341 Level Chicago Center
07:57AM 41.1950 -85.0425 284° West 421 484 33,300 -1,065 Descending Chicago Center
07:58AM 41.2217 -85.1886 284° West 409 471 31,800 -1,463 Descending Chicago Center
07:59AM 41.2500 -85.3406 284° West 420 483 30,300 -1,561 Descending Chicago Center
08:00AM 41.2758 -85.4847 283° West 400 460 28,600 -1,610 Descending Chicago Center
08:01AM 41.3019 -85.6256 284° West 385 443 27,000 -1,561 Descending Chicago Center
08:02AM 41.3258 -85.7636 283° West 387 445 25,400 -976 Descending Chicago Center
08:03AM 41.3497 -85.8992 283° West 380 437 25,000 -195 Descending Chicago Center
08:04AM 41.3739 -86.0353 283° West 376 433 25,000  Level Chicago Center
08:05AM 41.3994 -86.1783 283° West 393 452 25,000  Level Chicago Center
08:06AM 41.4297 -86.3531 283° West 402 463 25,000 -195 Level Chicago Center
08:07AM 41.4556 -86.4978 283° West 402 463 24,600 -1,403 Descending Chicago Center
08:08AM 41.4786 -86.6383 282° West 389 448 22,100 -2,341 Descending Chicago Center
08:09AM 41.5017 -86.7722 283° West 387 445 19,800 -2,146 Descending Chicago Center
08:10AM 41.5247 -86.9067 283° West 376 433 17,700 -2,341 Descending Chicago Center
08:11AM 41.5517 -87.0558 284° West 350 403 15,000 -2,293 Descending Chicago Center
08:12AM 41.5711 -87.1797 282° West 343 395 13,000 -1,513 Descending Chicago Center
08:13AM 41.6000 -87.2833 290° West 321 369 12,000 -718 Descending Chicago TRACON
08:14AM 41.6667 -87.3667 317° Northwest 316 364 11,600 -469 Descending Chicago TRACON
08:15AM 41.7153 -87.4639 304° West 310 357 11,000 -279 Descending Chicago Center
08:16AM 41.7714 -87.5569 309° West 320 368 11,000 -51 Level Chicago Center
08:17AM 41.8333 -87.6500 312° West 298 343 10,900 -878 Descending Chicago TRACON
08:18AM 41.8833 -87.7333 309° West 252 290 9,200 -1,400 Descending Chicago TRACON
08:19AM 41.8833 -87.8333 270° West 258 297 8,100 -737 Descending Chicago TRACON
08:20AM 41.9000 -87.9167 285° West 264 304 7,800 -952 Descending Chicago TRACON
08:21AM 41.8833 -88.0167 257° West 248 285 6,100 -857 Descending Chicago TRACON
08:22AM 41.9000 -88.1000 285° West 240 276 6,000 -744 Descending Chicago TRACON
08:23AM 41.9333 -88.1667 304° West 249 287 4,600 -1,388 Descending Chicago TRACON
08:24AM 41.9667 -88.1333 37° Northeast 206 237 3,200 -950 Descending Chicago TRACON
08:25AM 41.9667 -88.0500 90° East 168 193 2,700 -700 Descending Chicago TRACON
08:26AM 41.9667 -88.0000 90° East 130 150 1,800 -750 Descending Chicago TRACON
08:27AM 41.9667 -87.9667 90° East 116 133 1,200 -600 Descending Chicago TRACON
08:30AM 41.9667 -87.9000 90° East  Level FlightAware Approximate

Login

Don't have an account? Register now (free) for customized features, flight alerts, and more!